Time,TemperatureF,DewpointF,PressureIn,WindDirection,WindDirectionDegrees,WindSpeedMPH,WindSpeedGustMPH,Humidity,HourlyPrecipIn,Conditions,Clouds,dailyrainin,SoftwareType,DateUTC
2013-06-22 01:20:00,56.6,55.5,30.20,WNW,289,0.0,0.0,96,0.00,,,0.00,Wunderground v.1.15,2013-06-22 05:20:00,
2013-06-22 01:30:00,56.2,55.1,30.20,WNW,288,0.0,0.0,96,0.00,,,0.00,Wunderground v.1.15,2013-06-22 05:30:00,
2013-06-22 01:40:00,56.0,54.9,30.20,WNW,289,0.0,0.0,96,0.00,,,0.00,Wunderground v.1.15,2013-06-22 05:40:00,
2013-06-22 01:50:00,56.0,54.9,30.19,WNW,289,0.0,0.0,96,0.00,,,0.00,Wunderground v.1.15,2013-06-22 05:50:00,
2013-06-22 01:55:00,55.9,54.8,30.19,WNW,289,0.0,0.0,96,0.00,,,0.00,Wunderground v.1.15,2013-06-22 05:55:00,
2013-06-22 02:05:00,55.8,54.7,30.19,WNW,289,0.0,0.0,96,0.00,,,0.00,Wunderground v.1.15,2013-06-22 06:05:00,
2013-06-22 02:15:00,55.7,54.6,30.19,WNW,289,0.0,0.0,96,0.00,,,0.00,Wunderground v.1.15,2013-06-22 06:15:00,
2013-06-22 02:20:00,55.6,54.5,30.19,WNW,289,0.0,0.0,96,0.00,,,0.00,Wunderground v.1.15,2013-06-22 06:20:00,
2013-06-22 02:25:00,55.6,54.5,30.19,WNW,289,0.0,0.0,96,0.00,,,0.00,Wunderground v.1.15,2013-06-22 06:25:00,
2013-06-22 02:35:00,55.6,54.8,30.19,WNW,288,0.0,0.0,97,0.00,,,0.00,Wunderground v.1.15,2013-06-22 06:35:00,
2013-06-22 02:40:00,55.6,54.8,30.19,WNW,289,0.0,0.0,97,0.00,,,0.00,Wunderground v.1.15,2013-06-22 06:40:00,
2013-06-22 02:50:00,55.6,54.8,30.18,WNW,289,0.0,0.0,97,0.00,,,0.00,Wunderground v.1.15,2013-06-22 06:50:00,
2013-06-22 02:55:00,55.6,54.8,30.19,WNW,289,0.0,0.0,97,0.00,,,0.00,Wunderground v.1.15,2013-06-22 06:55:00,
2013-06-22 03:05:00,55.5,54.7,30.18,WNW,289,0.0,0.0,97,0.00,,,0.00,Wunderground v.1.15,2013-06-22 07:05:00,
2013-06-22 03:15:00,55.3,54.2,30.18,WNW,289,0.0,0.0,96,0.00,,,0.00,Wunderground v.1.15,2013-06-22 07:15:00,
2013-06-22 03:20:00,55.2,54.1,30.18,WNW,288,0.0,0.0,96,0.00,,,0.00,Wunderground v.1.15,2013-06-22 07:20:00,
2013-06-22 03:25:00,55.2,54.4,30.18,WNW,288,0.0,0.0,97,0.00,,,0.00,Wunderground v.1.15,2013-06-22 07:25:00,
2013-06-22 03:35:00,55.1,54.3,30.18,WNW,288,0.0,0.0,97,0.00,,,0.00,Wunderground v.1.15,2013-06-22 07:35:00,
2013-06-22 03:40:00,55.0,54.2,30.18,WNW,288,0.0,0.0,97,0.00,,,0.00,Wunderground v.1.15,2013-06-22 07:40:00,
2013-06-22 03:50:00,54.8,54.0,30.18,WNW,289,0.0,0.0,97,0.00,,,0.00,Wunderground v.1.15,2013-06-22 07:50:00,
2013-06-22 03:55:00,54.8,54.0,30.18,WNW,288,0.0,0.0,97,0.00,,,0.00,Wunderground v.1.15,2013-06-22 07:55:00,
2013-06-22 04:00:00,54.7,53.9,30.18,WNW,289,0.0,0.0,97,0.00,,,0.00,Wunderground v.1.15,2013-06-22 08:00:00,
2013-06-22 04:05:00,54.6,53.8,30.18,WNW,289,0.0,0.0,97,0.00,,,0.00,Wunderground v.1.15,2013-06-22 08:05:00,
2013-06-22 04:15:00,54.3,53.5,30.18,WNW,288,0.0,0.0,97,0.00,,,0.00,Wunderground v.1.15,2013-06-22 08:15:00,
2013-06-22 04:25:00,54.1,53.3,30.18,WNW,289,0.0,0.0,97,0.00,,,0.00,Wunderground v.1.15,2013-06-22 08:25:00,
2013-06-22 04:30:00,54.0,53.2,30.18,WNW,289,0.0,0.0,97,0.00,,,0.00,Wunderground v.1.15,2013-06-22 08:30:00,
2013-06-22 04:35:00,53.9,53.1,30.18,WNW,288,0.0,0.0,97,0.00,,,0.00,Wunderground v.1.15,2013-06-22 08:35:00,
2013-06-22 04:45:00,53.8,53.0,30.18,WNW,288,0.0,0.0,97,0.00,,,0.00,Wunderground v.1.15,2013-06-22 08:45:00,
2013-06-22 04:50:00,53.9,53.1,30.18,WNW,288,0.0,0.0,97,0.00,,,0.00,Wunderground v.1.15,2013-06-22 08:50:00,
2013-06-22 05:00:00,54.1,53.3,30.18,WNW,289,0.0,0.0,97,0.00,,,0.00,Wunderground v.1.15,2013-06-22 09:00:00,
2013-06-22 05:05:00,54.1,53.3,30.18,WNW,288,0.0,0.0,97,0.00,,,0.00,Wunderground v.1.15,2013-06-22 09:05:00,
2013-06-22 05:15:00,54.2,53.4,30.18,WNW,289,0.0,0.0,97,0.00,,,0.00,Wunderground v.1.15,2013-06-22 09:15:00,
2013-06-22 05:20:00,54.4,53.6,30.18,WNW,289,0.0,0.0,97,0.00,,,0.00,Wunderground v.1.15,2013-06-22 09:20:00,
2013-06-22 05:30:00,54.7,54.1,30.18,WNW,289,0.0,0.0,98,0.00,,,0.00,Wunderground v.1.15,2013-06-22 09:30:00,
2013-06-22 05:35:00,54.6,53.8,30.18,WNW,289,0.0,0.0,97,0.00,,,0.00,Wunderground v.1.15,2013-06-22 09:35:00,
2013-06-22 05:45:00,54.6,53.8,30.19,WNW,289,0.0,0.0,97,0.00,,,0.00,Wunderground v.1.15,2013-06-22 09:45:00,
2013-06-22 05:55:00,54.7,53.9,30.19,WNW,288,0.0,0.0,97,0.00,,,0.00,Wunderground v.1.15,2013-06-22 09:55:00,
2013-06-22 06:00:00,54.7,53.9,30.19,WNW,288,0.0,0.0,97,0.00,,,0.00,Wunderground v.1.15,2013-06-22 10:00:00,
2013-06-22 06:05:00,54.8,54.0,30.19,WNW,289,0.0,0.0,97,0.00,,,0.00,Wunderground v.1.15,2013-06-22 10:05:00,
2013-06-22 06:15:00,55.0,54.2,30.18,WNW,288,0.0,0.0,97,0.00,,,0.00,Wunderground v.1.15,2013-06-22 10:15:00,
2013-06-22 06:25:00,55.4,54.8,30.18,WNW,288,0.0,0.0,98,0.00,,,0.00,Wunderground v.1.15,2013-06-22 10:25:00,
2013-06-22 06:30:00,55.6,55.0,30.17,WNW,288,0.0,0.0,98,0.00,,,0.00,Wunderground v.1.15,2013-06-22 10:30:00,
2013-06-22 06:35:00,56.0,55.4,30.17,WNW,288,0.0,1.0,98,0.00,,,0.00,Wunderground v.1.15,2013-06-22 10:35:00,
2013-06-22 06:45:00,56.6,56.0,30.18,South,190,0.0,0.0,98,0.00,,,0.00,Wunderground v.1.15,2013-06-22 10:45:00,
2013-06-22 06:50:00,56.8,56.2,30.18,South,190,0.0,1.0,98,0.00,,,0.00,Wunderground v.1.15,2013-06-22 10:50:00,
2013-06-22 07:00:00,57.1,56.3,30.17,South,190,0.0,0.0,97,0.00,,,0.00,Wunderground v.1.15,2013-06-22 11:00:00,
2013-06-22 07:05:00,57.5,56.7,30.17,South,190,0.0,0.0,97,0.00,,,0.00,Wunderground v.1.15,2013-06-22 11:05:00,
2013-06-22 07:15:00,58.2,57.1,30.17,South,190,0.0,0.0,96,0.00,,,0.00,Wunderground v.1.15,2013-06-22 11:15:00,
2013-06-22 07:20:00,58.5,57.1,30.17,South,190,0.0,0.0,95,0.00,,,0.00,Wunderground v.1.15,2013-06-22 11:20:00,
2013-06-22 07:25:00,59.0,58.4,30.16,South,190,0.0,0.0,98,0.00,,,0.00,Wunderground v.1.15,2013-06-22 11:25:00,
2013-06-22 07:35:00,60.1,58.4,30.16,South,190,0.0,0.0,94,0.00,,,0.00,Wunderground v.1.15,2013-06-22 11:35:00,
2013-06-22 07:40:00,60.9,58.6,30.16,West,259,0.0,0.0,92,0.00,,,0.00,Wunderground v.1.15,2013-06-22 11:40:00,
2013-06-22 07:50:00,62.2,59.5,30.16,West,259,0.0,0.0,91,0.00,,,0.00,Wunderground v.1.15,2013-06-22 11:50:00,
2013-06-22 07:55:00,63.0,60.3,30.16,West,259,0.0,0.0,91,0.00,,,0.00,Wunderground v.1.15,2013-06-22 11:55:00,
2013-06-22 08:00:00,63.3,59.4,30.16,West,259,0.0,0.0,87,0.00,,,0.00,Wunderground v.1.15,2013-06-22 12:00:00,
2013-06-22 08:05:00,63.7,59.8,30.16,West,259,0.0,0.0,87,0.00,,,0.00,Wunderground v.1.15,2013-06-22 12:05:00,
2013-06-22 08:15:00,63.7,59.1,30.16,WSW,252,0.0,1.0,85,0.00,,,0.00,Wunderground v.1.15,2013-06-22 12:15:00,
2013-06-22 08:20:00,63.9,59.6,30.17,WSW,252,0.0,0.0,86,0.00,,,0.00,Wunderground v.1.15,2013-06-22 12:20:00,
2013-06-22 08:25:00,64.3,59.7,30.17,WSW,252,0.0,0.0,85,0.00,,,0.00,Wunderground v.1.15,2013-06-22 12:25:00,
2013-06-22 08:30:00,64.7,60.4,30.17,WSW,252,0.0,0.0,86,0.00,,,0.00,Wunderground v.1.15,2013-06-22 12:30:00,
2013-06-22 08:35:00,65.3,60.7,30.17,WSW,252,0.0,0.0,85,0.00,,,0.00,Wunderground v.1.15,2013-06-22 12:35:00,
2013-06-22 08:45:00,66.5,60.8,30.17,WSW,250,0.0,0.0,82,0.00,,,0.00,Wunderground v.1.15,2013-06-22 12:45:00,
2013-06-22 08:50:00,67.0,61.0,30.16,WSW,250,0.0,0.0,81,0.00,,,0.00,Wunderground v.1.15,2013-06-22 12:50:00,
2013-06-22 09:00:00,67.8,60.7,30.16,WSW,251,0.0,0.0,78,0.00,,,0.00,Wunderground v.1.15,2013-06-22 13:00:00,
2013-06-22 09:05:00,68.0,60.5,30.15,WSW,250,0.0,0.0,77,0.00,,,0.00,Wunderground v.1.15,2013-06-22 13:05:00,
2013-06-22 09:15:00,68.6,61.5,30.16,WSW,251,0.0,0.0,78,0.00,,,0.00,Wunderground v.1.15,2013-06-22 13:15:00,
2013-06-22 09:25:00,69.4,62.6,30.16,WSW,254,0.0,0.0,79,0.00,,,0.00,Wunderground v.1.15,2013-06-22 13:25:00,
2013-06-22 09:30:00,70.0,62.5,30.16,WSW,254,0.0,0.0,77,0.00,,,0.00,Wunderground v.1.15,2013-06-22 13:30:00,
2013-06-22 09:40:00,71.0,63.1,30.16,WSW,254,0.0,1.0,76,0.00,,,0.00,Wunderground v.1.15,2013-06-22 13:40:00,
2013-06-22 09:45:00,71.3,61.8,30.16,WSW,253,0.0,1.0,72,0.00,,,0.00,Wunderground v.1.15,2013-06-22 13:45:00,
2013-06-22 09:50:00,71.7,64.1,30.16,WSW,237,0.0,0.0,77,0.00,,,0.00,Wunderground v.1.15,2013-06-22 13:50:00,
2013-06-22 10:00:00,72.5,63.0,30.16,SSW,203,0.0,1.0,72,0.00,,,0.00,Wunderground v.1.15,2013-06-22 14:00:00,
2013-06-22 10:05:00,72.9,64.5,30.16,SSW,206,0.0,1.0,75,0.00,,,0.00,Wunderground v.1.15,2013-06-22 14:05:00,
2013-06-22 10:15:00,73.5,63.9,30.16,SSW,209,0.0,1.0,72,0.00,,,0.00,Wunderground v.1.15,2013-06-22 14:15:00,
2013-06-22 10:25:00,74.3,65.1,30.16,SSW,209,0.0,0.0,73,0.00,,,0.00,Wunderground v.1.15,2013-06-22 14:25:00,
2013-06-22 10:30:00,74.8,64.4,30.16,SSW,209,0.0,0.0,70,0.00,,,0.00,Wunderground v.1.15,2013-06-22 14:30:00,
2013-06-22 10:35:00,75.1,65.1,30.16,SSW,209,1.0,1.0,71,0.00,,,0.00,Wunderground v.1.15,2013-06-22 14:35:00,
2013-06-22 10:45:00,75.8,64.1,30.15,South,179,1.0,1.0,67,0.00,,,0.00,Wunderground v.1.15,2013-06-22 14:45:00,
2013-06-22 10:50:00,76.3,64.5,30.16,South,188,0.0,0.0,67,0.00,,,0.00,Wunderground v.1.15,2013-06-22 14:50:00,
2013-06-22 11:00:00,77.3,67.2,30.16,South,178,1.0,1.0,71,0.00,,,0.00,Wunderground v.1.15,2013-06-22 15:00:00,
2013-06-22 11:05:00,77.7,65.9,30.16,South,190,1.0,2.0,67,0.00,,,0.00,Wunderground v.1.15,2013-06-22 15:05:00,
2013-06-22 11:15:00,77.7,65.9,30.15,South,177,2.0,2.0,67,0.00,,,0.00,Wunderground v.1.15,2013-06-22 15:15:00,
2013-06-22 11:20:00,77.8,65.1,30.16,NNE,29,2.0,2.0,65,0.00,,,0.00,Wunderground v.1.15,2013-06-22 15:20:00,
2013-06-22 11:25:00,78.2,66.8,30.16,SE,139,1.0,2.0,68,0.00,,,0.00,Wunderground v.1.15,2013-06-22 15:25:00,
2013-06-22 11:35:00,79.1,67.2,30.15,SSE,157,1.0,2.0,67,0.00,,,0.00,Wunderground v.1.15,2013-06-22 15:35:00,
2013-06-22 11:40:00,79.5,66.7,30.15,SSE,161,1.0,1.0,65,0.00,,,0.00,Wunderground v.1.15,2013-06-22 15:40:00,
2013-06-22 11:50:00,79.2,67.3,30.15,SSE,154,2.0,2.0,67,0.00,,,0.00,Wunderground v.1.15,2013-06-22 15:50:00,
2013-06-22 11:55:00,79.0,65.8,30.15,South,185,3.0,3.0,64,0.00,,,0.00,Wunderground v.1.15,2013-06-22 15:55:00,
2013-06-22 12:05:00,79.7,67.3,30.15,South,173,1.0,3.0,66,0.00,,,0.00,Wunderground v.1.15,2013-06-22 16:05:00,
2013-06-22 12:15:00,79.9,65.2,30.14,NNE,30,1.0,1.0,61,0.00,,,0.00,Wunderground v.1.15,2013-06-22 16:15:00,
2013-06-22 12:20:00,80.2,68.2,30.14,SSW,211,1.0,4.0,67,0.00,,,0.00,Wunderground v.1.15,2013-06-22 16:20:00,
2013-06-22 12:25:00,80.1,64.5,30.14,NE,39,1.0,4.0,59,0.00,,,0.00,Wunderground v.1.15,2013-06-22 16:25:00,
2013-06-22 12:35:00,80.2,65.5,30.14,SSE,165,2.0,3.0,61,0.00,,,0.00,Wunderground v.1.15,2013-06-22 16:35:00,
2013-06-22 12:40:00,80.5,67.2,30.14,ESE,122,3.0,3.0,64,0.00,,,0.00,Wunderground v.1.15,2013-06-22 16:40:00,
2013-06-22 12:50:00,81.4,64.2,30.13,NW,307,1.0,2.0,56,0.00,,,0.00,Wunderground v.1.15,2013-06-22 16:50:00,
2013-06-22 13:00:00,81.4,65.7,30.13,ESE,114,2.0,4.0,59,0.00,,,0.00,Wunderground v.1.15,2013-06-22 17:00:00,
2013-06-22 13:05:00,81.8,65.1,30.13,NW,325,2.0,4.0,57,0.00,,,0.00,Wunderground v.1.15,2013-06-22 17:05:00,
2013-06-22 13:15:00,81.7,64.5,30.13,SSW,202,3.0,3.0,56,0.00,,,0.00,Wunderground v.1.15,2013-06-22 17:15:00,
2013-06-22 13:20:00,81.6,66.4,30.13,South,182,2.0,2.0,60,0.00,,,0.00,Wunderground v.1.15,2013-06-22 17:20:00,
2013-06-22 13:30:00,81.4,64.2,30.12,South,180,3.0,4.0,56,0.00,,,0.00,Wunderground v.1.15,2013-06-22 17:30:00,
2013-06-22 13:35:00,81.4,63.7,30.12,SE,128,4.0,5.0,55,0.00,,,0.00,Wunderground v.1.15,2013-06-22 17:35:00,
2013-06-22 13:40:00,81.2,63.5,30.12,South,186,4.0,4.0,55,0.00,,,0.00,Wunderground v.1.15,2013-06-22 17:40:00,
2013-06-22 13:50:00,80.4,64.8,30.12,SW,216,1.0,1.0,59,0.00,,,0.00,Wunderground v.1.15,2013-06-22 17:50:00,
2013-06-22 14:00:00,79.2,63.6,30.12,SSE,162,1.0,1.0,59,0.00,,,0.00,Wunderground v.1.15,2013-06-22 18:00:00,
2013-06-22 14:05:00,78.6,64.0,30.12,South,191,3.0,3.0,61,0.00,,,0.00,Wunderground v.1.15,2013-06-22 18:05:00,
2013-06-22 14:15:00,77.9,64.7,30.12,SSW,198,1.0,2.0,64,0.00,,,0.00,Wunderground v.1.15,2013-06-22 18:15:00,
2013-06-22 14:20:00,77.8,64.6,30.12,SSE,168,1.0,1.0,64,0.00,,,0.00,Wunderground v.1.15,2013-06-22 18:20:00,
2013-06-22 14:30:00,77.8,65.1,30.12,South,178,1.0,1.0,65,0.00,,,0.00,Wunderground v.1.15,2013-06-22 18:30:00,
2013-06-22 14:35:00,78.4,66.5,30.11,South,178,1.0,1.0,67,0.00,,,0.00,Wunderground v.1.15,2013-06-22 18:35:00,
2013-06-22 14:45:00,78.9,66.1,30.11,SW,217,0.0,1.0,65,0.00,,,0.00,Wunderground v.1.15,2013-06-22 18:45:00,
2013-06-22 14:50:00,79.0,64.9,30.11,SW,217,1.0,1.0,62,0.00,,,0.00,Wunderground v.1.15,2013-06-22 18:50:00,
2013-06-22 14:55:00,79.1,64.5,30.11,WNW,290,1.0,1.0,61,0.00,,,0.00,Wunderground v.1.15,2013-06-22 18:55:00,
2013-06-22 15:05:00,79.5,65.8,30.10,South,184,0.0,1.0,63,0.00,,,0.00,Wunderground v.1.15,2013-06-22 19:05:00,
2013-06-22 15:15:00,79.5,65.3,30.10,South,178,1.0,1.0,62,0.00,,,0.00,Wunderground v.1.15,2013-06-22 19:15:00,
2013-06-22 15:20:00,79.7,66.4,30.09,SSW,205,1.0,1.0,64,0.00,,,0.00,Wunderground v.1.15,2013-06-22 19:20:00,
2013-06-22 15:30:00,80.3,66.1,30.09,SSW,211,1.0,1.0,62,0.00,,,0.00,Wunderground v.1.15,2013-06-22 19:30:00,
2013-06-22 15:35:00,80.4,64.3,30.09,South,171,2.0,6.0,58,0.00,,,0.00,Wunderground v.1.15,2013-06-22 19:35:00,
2013-06-22 15:45:00,80.4,64.3,30.08,South,182,4.0,4.0,58,0.00,,,0.00,Wunderground v.1.15,2013-06-22 19:45:00,
2013-06-22 15:50:00,80.3,63.7,30.08,SSW,209,3.0,3.0,57,0.00,,,0.00,Wunderground v.1.15,2013-06-22 19:50:00,
2013-06-22 16:00:00,80.1,65.0,30.08,ENE,60,2.0,2.0,60,0.00,,,0.00,Wunderground v.1.15,2013-06-22 20:00:00,
2013-06-22 16:05:00,80.0,63.9,30.08,NNW,333,1.0,2.0,58,0.00,,,0.00,Wunderground v.1.15,2013-06-22 20:05:00,
2013-06-22 16:15:00,79.8,63.7,30.08,NNW,337,1.0,1.0,58,0.00,,,0.00,Wunderground v.1.15,2013-06-22 20:15:00,
2013-06-22 16:20:00,79.8,63.7,30.08,South,178,1.0,1.0,58,0.00,,,0.00,Wunderground v.1.15,2013-06-22 20:20:00,
2013-06-22 16:30:00,80.1,65.0,30.08,South,169,0.0,0.0,60,0.00,,,0.00,Wunderground v.1.15,2013-06-22 20:30:00,
2013-06-22 16:40:00,80.2,64.6,30.08,SSW,209,1.0,3.0,59,0.00,,,0.00,Wunderground v.1.15,2013-06-22 20:40:00,
2013-06-22 16:45:00,80.2,63.6,30.08,WNW,302,1.0,3.0,57,0.00,,,0.00,Wunderground v.1.15,2013-06-22 20:45:00,
2013-06-22 16:55:00,80.1,63.5,30.08,NW,324,0.0,1.0,57,0.00,,,0.00,Wunderground v.1.15,2013-06-22 20:55:00,
2013-06-22 17:00:00,80.0,64.4,30.08,SSE,152,0.0,0.0,59,0.00,,,0.00,Wunderground v.1.15,2013-06-22 21:00:00,
2013-06-22 17:05:00,79.8,64.7,30.08,SSE,156,0.0,0.0,60,0.00,,,0.00,Wunderground v.1.15,2013-06-22 21:05:00,
2013-06-22 17:15:00,79.8,65.6,30.07,SSE,163,0.0,0.0,62,0.00,,,0.00,Wunderground v.1.15,2013-06-22 21:15:00,
2013-06-22 17:25:00,79.8,64.2,30.07,NNW,331,0.0,0.0,59,0.00,,,0.00,Wunderground v.1.15,2013-06-22 21:25:00,
2013-06-22 17:30:00,80.0,64.9,30.07,NNW,331,0.0,1.0,60,0.00,,,0.00,Wunderground v.1.15,2013-06-22 21:30:00,
2013-06-22 17:40:00,80.0,65.3,30.07,North,9,0.0,0.0,61,0.00,,,0.00,Wunderground v.1.15,2013-06-22 21:40:00,
2013-06-22 17:50:00,79.7,66.0,30.07,North,360,0.0,0.0,63,0.00,,,0.00,Wunderground v.1.15,2013-06-22 21:50:00,
2013-06-22 18:00:00,79.3,65.6,30.07,North,5,0.0,0.0,63,0.00,,,0.00,Wunderground v.1.15,2013-06-22 22:00:00,
2013-06-22 18:05:00,79.2,67.3,30.07,North,360,0.0,0.0,67,0.00,,,0.00,Wunderground v.1.15,2013-06-22 22:05:00,
2013-06-22 18:15:00,79.1,67.2,30.07,North,360,0.0,0.0,67,0.00,,,0.00,Wunderground v.1.15,2013-06-22 22:15:00,
2013-06-22 18:20:00,78.8,67.3,30.07,North,360,0.0,0.0,68,0.00,,,0.00,Wunderground v.1.15,2013-06-22 22:20:00,
2013-06-22 18:25:00,78.7,68.1,30.07,North,5,0.0,0.0,70,0.00,,,0.00,Wunderground v.1.15,2013-06-22 22:25:00,
2013-06-22 18:30:00,78.4,69.4,30.07,North,5,0.0,0.0,74,0.00,,,0.00,Wunderground v.1.15,2013-06-22 22:30:00,
2013-06-22 18:40:00,78.0,69.8,30.07,North,5,0.0,0.0,76,0.00,,,0.00,Wunderground v.1.15,2013-06-22 22:40:00,
2013-06-22 18:50:00,76.9,70.6,30.07,North,360,0.0,0.0,81,0.00,,,0.00,Wunderground v.1.15,2013-06-22 22:50:00,
2013-06-22 18:55:00,76.6,70.0,30.07,North,5,0.0,0.0,80,0.00,,,0.00,Wunderground v.1.15,2013-06-22 22:55:00,
2013-06-22 19:00:00,76.2,69.9,30.07,North,5,0.0,0.0,81,0.00,,,0.00,Wunderground v.1.15,2013-06-22 23:00:00,
2013-06-22 19:05:00,75.7,69.8,30.07,North,360,0.0,0.0,82,0.00,,,0.00,Wunderground v.1.15,2013-06-22 23:05:00,
2013-06-22 19:15:00,75.1,69.2,30.07,North,5,0.0,0.0,82,0.00,,,0.00,Wunderground v.1.15,2013-06-22 23:15:00,
2013-06-22 19:25:00,74.6,68.0,30.07,North,360,0.0,0.0,80,0.00,,,0.00,Wunderground v.1.15,2013-06-22 23:25:00,
2013-06-22 19:30:00,74.2,68.0,30.07,North,360,0.0,0.0,81,0.00,,,0.00,Wunderground v.1.15,2013-06-22 23:30:00,
2013-06-22 19:35:00,73.9,68.1,30.07,North,360,0.0,0.0,82,0.00,,,0.00,Wunderground v.1.15,2013-06-22 23:35:00,
2013-06-22 19:45:00,73.5,67.7,30.07,North,5,0.0,0.0,82,0.00,,,0.00,Wunderground v.1.15,2013-06-22 23:45:00,
2013-06-22 19:50:00,73.3,68.2,30.08,North,5,0.0,0.0,84,0.00,,,0.00,Wunderground v.1.15,2013-06-22 23:50:00,
2013-06-22 20:00:00,72.7,67.6,30.08,North,360,0.0,0.0,84,0.00,,,0.00,Wunderground v.1.15,2013-06-23 00:00:00,
2013-06-22 20:05:00,72.2,67.4,30.08,NNW,329,0.0,0.0,85,0.00,,,0.00,Wunderground v.1.15,2013-06-23 00:05:00,
2013-06-22 20:15:00,72.1,65.6,30.08,North,355,1.0,1.0,80,0.00,,,0.00,Wunderground v.1.15,2013-06-23 00:15:00,
2013-06-22 20:25:00,72.3,65.4,30.08,North,355,0.0,0.0,79,0.00,,,0.00,Wunderground v.1.15,2013-06-23 00:25:00,
2013-06-22 20:30:00,72.4,65.2,30.08,ESE,117,0.0,0.0,78,0.00,,,0.00,Wunderground v.1.15,2013-06-23 00:30:00,
2013-06-22 20:40:00,72.3,65.1,30.09,SSW,199,0.0,2.0,78,0.00,,,0.00,Wunderground v.1.15,2013-06-23 00:40:00,
2013-06-22 20:45:00,72.3,65.1,30.09,NE,43,1.0,2.0,78,0.00,,,0.00,Wunderground v.1.15,2013-06-23 00:45:00,
2013-06-22 20:55:00,72.2,64.6,30.09,North,355,1.0,3.0,77,0.00,,,0.00,Wunderground v.1.15,2013-06-23 00:55:00,
2013-06-22 21:05:00,71.8,64.9,30.09,NNW,338,1.0,2.0,79,0.00,,,0.00,Wunderground v.1.15,2013-06-23 01:05:00,
2013-06-22 21:15:00,71.5,64.6,30.09,East,99,0.0,0.0,79,0.00,,,0.00,Wunderground v.1.15,2013-06-23 01:15:00,
2013-06-22 21:20:00,71.3,64.4,30.10,East,99,0.0,0.0,79,0.00,,,0.00,Wunderground v.1.15,2013-06-23 01:20:00,
2013-06-22 21:30:00,71.1,64.6,30.10,East,99,0.0,0.0,80,0.00,,,0.00,Wunderground v.1.15,2013-06-23 01:30:00,
2013-06-22 21:35:00,70.9,64.4,30.10,East,99,0.0,0.0,80,0.00,,,0.00,Wunderground v.1.15,2013-06-23 01:35:00,
2013-06-22 21:45:00,70.4,64.6,30.10,East,99,0.0,0.0,82,0.00,,,0.00,Wunderground v.1.15,2013-06-23 01:45:00,
2013-06-22 21:50:00,70.2,64.4,30.10,East,99,0.0,0.0,82,0.00,,,0.00,Wunderground v.1.15,2013-06-23 01:50:00,
2013-06-22 22:00:00,69.8,64.4,30.10,East,99,0.0,0.0,83,0.00,,,0.00,Wunderground v.1.15,2013-06-23 02:00:00,
2013-06-22 22:05:00,69.5,64.1,30.10,East,99,0.0,0.0,83,0.00,,,0.00,Wunderground v.1.15,2013-06-23 02:05:00,
2013-06-22 22:15:00,69.2,64.2,30.10,East,99,0.0,0.0,84,0.00,,,0.00,Wunderground v.1.15,2013-06-23 02:15:00,
2013-06-22 22:20:00,69.0,64.3,30.10,East,99,0.0,0.0,85,0.00,,,0.00,Wunderground v.1.15,2013-06-23 02:20:00,
2013-06-22 22:30:00,68.6,64.2,30.10,East,99,0.0,0.0,86,0.00,,,0.00,Wunderground v.1.15,2013-06-23 02:30:00,
2013-06-22 22:35:00,68.3,63.9,30.11,East,99,0.0,0.0,86,0.00,,,0.00,Wunderground v.1.15,2013-06-23 02:35:00,
2013-06-22 22:45:00,68.0,64.3,30.11,East,99,0.0,0.0,88,0.00,,,0.00,Wunderground v.1.15,2013-06-23 02:45:00,
2013-06-22 22:50:00,67.9,64.5,30.11,East,99,0.0,0.0,89,0.00,,,0.00,Wunderground v.1.15,2013-06-23 02:50:00,
2013-06-22 23:00:00,67.6,64.6,30.11,East,99,0.0,0.0,90,0.00,,,0.00,Wunderground v.1.15,2013-06-23 03:00:00,
2013-06-22 23:05:00,67.4,64.7,30.11,East,99,0.0,0.0,91,0.00,,,0.00,Wunderground v.1.15,2013-06-23 03:05:00,
2013-06-22 23:15:00,67.1,64.7,30.12,East,99,0.0,0.0,92,0.00,,,0.01,Wunderground v.1.15,2013-06-23 03:15:00,
2013-06-22 23:25:00,67.0,64.9,30.12,East,99,0.0,0.0,93,0.00,,,0.01,Wunderground v.1.15,2013-06-23 03:25:00,
2013-06-22 23:30:00,66.9,64.8,30.12,East,99,0.0,0.0,93,0.00,,,0.01,Wunderground v.1.15,2013-06-23 03:30:00,
2013-06-22 23:35:00,66.9,65.1,30.12,East,99,0.0,0.0,94,0.00,,,0.01,Wunderground v.1.15,2013-06-23 03:35:00,
2013-06-22 23:45:00,66.8,65.0,30.12,East,99,0.0,0.0,94,0.00,,,0.01,Wunderground v.1.15,2013-06-23 03:45:00,
2013-06-22 23:50:00,66.7,64.9,30.12,East,99,0.0,0.0,94,0.00,,,0.01,Wunderground v.1.15,2013-06-23 03:50:00,